Regional Weather Roundup
Issued by NWS

Home | Current Version | Previous Version | Text Only | Print | Product List | Glossary Off
Versions: 1 2 3 4 5 6 7 8 9 10 11 12 13 14 15 16 17 18 19 20 21 22 23 24 25 26 27 28 29 30 31 32 33 34 35 36 37 38 39 40 41 42 43 44 45 46 47 48 49 50

220
ASUS43 KLOT 240312
RWRIL

ILLINOIS REGIONAL WEATHER ROUNDUP
NATIONAL WEATHER SERVICE CHICAGO/ROMEOVILLE IL
900 PM CST THU FEB 23 2017

NOTE: "FAIR" INDICATES FEW OR NO CLOUDS BELOW 12,000 FEET WITH NO
SIGNIFICANT WEATHER AND/OR OBSTRUCTIONS TO VISIBILITY.

* THESE STATIONS ARE NOT UNDER NWS QUALITY CONTROL. THEY ALSO MAY NOT
  REPORT WEATHER SUCH AS PRECIPITATION OR FOG.

ILZ001-002-007-009-015-016-024-240400-
NORTHWEST ILLINOIS

CITY           SKY/WX    TMP DP  RH WIND       PRES   REMARKS
MOLINE         CLOUDY    43  38  82 E18       29.64S
STERLING*      CLOUDY    38  35  89 E23G30    29.68F WCI  27
SAVANNA*       LGT RAIN  37  35  91 NE14      29.73R WCI  29
$$

ILZ003-004-008-010-011-017-018-240400-
NORTH CENTRAL ILLINOIS

CITY           SKY/WX    TMP DP  RH WIND       PRES   REMARKS
ROCKFORD       HVY RAIN  36  33  89 NE16      29.73F FOG     WCI  26
FREEPORT*      LGT RAIN  35  33  93 E16G26    29.72F WCI  25
ROCHELLE*      CLOUDY    36  35  94 NE17G23   29.71F WCI  26
DE KALB*       LGT RAIN  36  35  95 NE16G24   29.72F WCI  26
PERU*          DRIZZLE   38  36  92 E20       29.67F WCI  28
$$

ILZ005-006-012>014-019>023-240400-
NORTHEAST ILLINOIS

CITY           SKY/WX    TMP DP  RH WIND       PRES   REMARKS
CHICAGO-OHARE  LGT RAIN  39  36  89 NE13G22   29.75S WCI  31
CHICAGO-MIDWAY LGT RAIN  40  36  86 NE13      29.73F
AURORA         CLOUDY    39  35  86 NE14G22   29.72S WCI  31
LANSING*       CLOUDY    38  38 100 NE12G17   29.72F WCI  31
JOLIET*        CLOUDY    40  39  94 NE12      29.71S
WAUKEGAN       LGT RAIN  36  34  92 NE12G22   29.77R WCI  28
DUPAGE AIRPORT LGT RAIN  37  34  89 NE17      29.72S WCI  27
KANKAKEE*      MOCLDY    40  38  94 NE8       29.70F
WHEELING       LGT RAIN  37  35  92 NE13G18   29.77F WCI  29
MORRIS*        CLOUDY    39  37  92 E8        29.70S WCI  34
ROMEOVILLE*    CLOUDY    38  38 100 NE13G18   29.72R WCI  30
NORTHERLY ISL    N/A     37  36  96 N15         N/A  WCI  28
$$

LMZ740>746-240400-
SOUTHERN LAKE MICHIGAN

STATION/POSITION SKY/WX   TEMP    WIND        PRES    VSBY  WAVE
                          AIR SEA DIR/SP/G                  HT/PER
                          (F)     (DEG/KT/KT) (MB)    (MI)  (FT/S)
HARRISON CRIB              38      20/ 10/ 12   N/A
BURNHAM HARBOR             37      10/ 11/ 15   N/A
CALUMET HARBOR             37      20/  9/ 14 1006.6F
BURNS HARBOR               37      20/  5/  7 1007.8F
MICHIGAN CITY              36      10/  9/ 10   N/A
$$

ILZ025>027-034>036-040-047-049-050-058-095>099-240400-
WEST-CENTRAL ILLINOIS

CITY           SKY/WX    TMP DP  RH WIND       PRES   REMARKS
QUINCY         PTCLDY    56  53  90 E9        29.49S
GALESBURG*     CLOUDY    44  42  93 E17G23    29.59S
MACOMB*        CLOUDY    49  47  93 E17       29.58F
JACKSONVILLE*  MOCLDY    59  54  83 SE16      29.51F
PITTSFIELD*    CLOUDY    61  56  83 SE13G21   29.52R
$$

ILZ028>032-037-038-041>044-048-051>054-059>061-240400-
CENTRAL ILLINOIS

CITY           SKY/WX    TMP DP  RH WIND       PRES   REMARKS
PONTIAC        PTCLDY    41  40  99 E16       29.69S
BLOOMINGTON    CLOUDY    46  43  89 E17       29.64F
DECATUR        CLOUDY    57  52  83 E10       29.60F
PEORIA         CLOUDY    45  42  89 E18       29.61S
LACON*         CLOUDY    40  39  97 E13G20    29.66F
LINCOLN*       MOCLDY    51  48  89 E15       29.59F
SPRINGFIELD    MOCLDY    60  53  77 SE13      29.55F
TAYLORVILLE    MOCLDY    59  53  79 E10       29.58F
$$

ILZ033-039-045-046-055>057-062-063-240400-
EAST-CENTRAL ILLINOIS

CITY           SKY/WX    TMP DP  RH WIND       PRES   REMARKS
CHAMPAIGN      MOCLDY    52  47  83 NE12      29.64F
RANTOUL*       PTCLDY    49  46  88 E14       29.65F
MATTOON        CLOUDY    60  54  80 SE9       29.62S
PARIS*         PTCLDY    59  55  86 SE6       29.66S
$$

ILZ079-100>102-240400-
SOUTHWEST ILLINOIS

CITY           SKY/WX    TMP DP  RH WIND       PRES   REMARKS
ALTON          MOCLDY    61  54  77 SE10      29.55F
BELLEVILLE     CLOUDY    62  56  81 NE6       29.56R
CAHOKIA*       CLOUDY    63  52  67 SE7       29.55R
SPARTA*        CLOUDY    65  54  68 S12G17    29.57S
$$

ILZ064>066-069>071-074>076-080>082-084>086-088>090-092>094-240400-
SOUTH-CENTRAL ILLINOIS

CITY           SKY/WX    TMP DP  RH WIND       PRES   REMARKS
CARBONDALE     PTCLDY    66  56  70 S13       29.59R
CAIRO*         PTCLDY    64  56  76 SE12G17   29.62S
EFFINGHAM*     PTCLDY    61  56  82 E8        29.64S
MARION         CLOUDY    66  57  72 S10       29.62R
MT. VERNON     CLOUDY    64  54  69 SE9       29.60F
CENTRALIA*     CLOUDY    66  55  69 SE14      29.57F
SALEM*         CLOUDY    65  53  64 SE5       29.60S
METROPOLIS*    PTCLDY    66  56  70 S10G16    29.65R
$$

ILZ067-068-072-073-078-083-087-091-240400-
SOUTHEAST ILLINOIS

CITY           SKY/WX    TMP DP  RH WIND       PRES   REMARKS
LAWRENCEVILLE  CLOUDY    62  55  77 SE13      29.65S
FLORA*         PTCLDY    64  56  73 SE14      29.61F
FAIRFIELD*     CLOUDY    65  55  70 S8        29.62R
HARRISBURG*    CLOUDY    64  56  76 S9        29.63F
ROBINSON*      PTCLDY    61  54  78 SE9       29.66S
CARMI*         CLOUDY    62  55  78 SE13      29.62F
$$

ABBREVIATIONS USED IN REMARKS
   TC - TEMPERATURE IN CELSIUS
  WCI - WIND CHILL INDEX
   HX - HEAT INDEX
  VSB - VISIBILITY
$$





USA.gov is the U.S. government's official web portal to all federal, state and local government web resources and services.